Weather History for Grosse Ile, MI

Change the Weather History Date:

Sunday, February 10, 2013

  Actual Average (KDTW) Record (KDTW)
Temperature  
Mean Temperature 33 °F 27 °F  
Max Temperature 42 °F 34 °F 59 °F (2009)
Min Temperature 24 °F 20 °F -13 °F (1899)
Degree Days  
Heating Degree Days 32 38  
Month to date heating degree days 386  
Since 1 July heating degree days 3906  
Cooling Degree Days 0 0  
Month to date cooling degree days 0  
Year to date cooling degree days 0  
Moisture  
Dew Point 25 °F    
Average Humidity 72    
Maximum Humidity 87    
Minimum Humidity 57    
Precipitation  
Precipitation 0.03 in 0.08 in 1.24 in (1981)
Month to date precipitation 0.67  
Year to date precipitation 2.63  
Snow  
Snow 0.00 in 0.30 in 8.10 in (1981)
Month to date snowfall 3.6  
Since 1 July snowfall 27.3  
Snow Depth -    
Sea Level Pressure  
Sea Level Pressure 30.03 in    
Wind  
Wind Speed 7 mph (ESE)    
Max Wind Speed 17 mph    
Max Gust Speed 26 mph    
Visibility 10 miles    
Events Rain    
T = Trace of Precipitation, MM = Missing Value Source: NWS Daily Summary

Daily Weather History Graph

Daily Weather History Graph

Search for Another Location

Airport:

Trip Planner

Search our weather history database for the weather conditions in past years. The results will help you decide how hot, cold, wet, or windy it might be!

Date:

Astronomy

Feb. 10, 2013 Rise Set
Actual Time 7:34 AM EST 5:59 PM EST
Civil Twilight 7:06 AM EST 6:28 PM EST
Nautical Twilight 6:33 AM EST 7:01 PM EST
Astronomical Twilight 6:00 AM EST 7:33 PM EST
Moon 7:22 AM EST (2/10) 6:50 PM EST (2/10)
Length of Visible Light 11h 22m
Length of Day
10h 24m
New Moon, 0% of the Moon is Illuminated
Feb 10
New Moon
Feb 17
First Quarter
Feb 25
Full
Mar 4
Last Quarter
Mar 11
New

Hourly Weather History & Observations

Time (EST) Temp. Windchill Dew Point Humidity Pressure Visibility Wind Dir Wind Speed Gust Speed Precip Events Conditions
12:14 AM 24.8 °F 16.9 °F 19.4 °F 80% 30.28 in 10.0 mi SE 6.9 mph - N/A   Clear
12:34 AM 24.8 °F 17.9 °F 21.2 °F 86% 30.28 in 10.0 mi ESE 5.8 mph - N/A   Clear
12:54 AM 24.8 °F 16.1 °F 21.2 °F 86% 30.26 in 10.0 mi SE 8.1 mph - N/A   Clear
1:15 AM 24.8 °F 16.9 °F 21.2 °F 86% 30.24 in 10.0 mi ESE 6.9 mph - N/A   Clear
1:34 AM 24.8 °F 17.9 °F 21.2 °F 86% 30.25 in 10.0 mi SE 5.8 mph - N/A   Clear
1:54 AM 24.8 °F 16.9 °F 21.2 °F 86% 30.23 in 10.0 mi ESE 6.9 mph - N/A   Clear
2:15 AM 24.8 °F 16.9 °F 21.2 °F 86% 30.23 in 10.0 mi ESE 6.9 mph - N/A   Clear
2:34 AM 24.8 °F 17.9 °F 21.2 °F 86% 30.24 in 10.0 mi SE 5.8 mph - N/A   Clear
2:54 AM 24.8 °F 16.9 °F 19.4 °F 80% 30.23 in 10.0 mi SE 6.9 mph - N/A   Clear
3:14 AM 24.8 °F 17.9 °F 19.4 °F 80% 30.22 in 10.0 mi ESE 5.8 mph - N/A   Clear
3:34 AM 24.8 °F 16.9 °F 19.4 °F 80% 30.21 in 10.0 mi ESE 6.9 mph - N/A   Clear
3:54 AM 26.6 °F 18.2 °F 19.4 °F 74% 30.21 in 10.0 mi ESE 8.1 mph - N/A   Clear
4:14 AM 26.6 °F 20.0 °F 19.4 °F 74% 30.20 in 10.0 mi SE 5.8 mph - N/A   Clear
4:34 AM 26.6 °F 20.0 °F 19.4 °F 74% 30.20 in 10.0 mi ESE 5.8 mph - N/A   Clear
4:54 AM 26.6 °F 21.2 °F 19.4 °F 74% 30.21 in 10.0 mi SE 4.6 mph - N/A   Clear
5:14 AM 26.6 °F 19.1 °F 19.4 °F 74% 30.21 in 10.0 mi SE 6.9 mph - N/A   Clear
5:34 AM 26.6 °F 20.0 °F 19.4 °F 74% 30.21 in 10.0 mi ESE 5.8 mph - N/A   Clear
5:54 AM 26.6 °F 21.2 °F 19.4 °F 74% 30.20 in 10.0 mi SE 4.6 mph - N/A   Clear
6:14 AM 26.6 °F 21.2 °F 19.4 °F 74% 30.21 in 10.0 mi SE 4.6 mph - N/A   Clear
6:35 AM 26.6 °F 21.2 °F 19.4 °F 74% 30.21 in 10.0 mi SE 4.6 mph - N/A   Clear
6:54 AM 26.6 °F 20.0 °F 19.4 °F 74% 30.21 in 10.0 mi SE 5.8 mph - N/A   Clear
7:14 AM 26.6 °F 19.1 °F 21.2 °F 80% 30.20 in 10.0 mi ESE 6.9 mph - N/A   Clear
7:34 AM 26.6 °F 20.0 °F 19.4 °F 74% 30.20 in 10.0 mi SE 5.8 mph - N/A   Clear
7:54 AM 26.6 °F 20.0 °F 21.2 °F 80% 30.18 in 10.0 mi ESE 5.8 mph - N/A   Clear
8:14 AM 26.6 °F 19.1 °F 21.2 °F 80% 30.17 in 10.0 mi East 6.9 mph - N/A   Clear
8:34 AM 26.6 °F 19.1 °F 21.2 °F 80% 30.15 in 10.0 mi ESE 6.9 mph - N/A   Scattered Clouds
8:54 AM 28.4 °F 23.3 °F 21.2 °F 74% 30.13 in 10.0 mi ESE 4.6 mph - N/A   Mostly Cloudy
9:14 AM 28.4 °F 22.2 °F 21.2 °F 74% 30.13 in 10.0 mi ESE 5.8 mph - N/A   Overcast
9:34 AM 28.4 °F 22.2 °F 21.2 °F 74% 30.14 in 10.0 mi South 5.8 mph - N/A   Overcast
9:54 AM 30.2 °F 25.4 °F 21.2 °F 69% 30.14 in 10.0 mi SE 4.6 mph - N/A   Overcast
10:14 AM 30.2 °F 23.4 °F 21.2 °F 69% 30.13 in 10.0 mi ESE 6.9 mph - N/A   Overcast
10:34 AM 32.0 °F 25.6 °F 23.0 °F 69% 30.13 in 10.0 mi SE 6.9 mph - N/A   Overcast
10:54 AM 32.0 °F 25.6 °F 23.0 °F 69% 30.13 in 10.0 mi SE 6.9 mph - N/A   Overcast
11:14 AM 33.8 °F 27.0 °F 23.0 °F 65% 30.13 in 10.0 mi SE 8.1 mph - N/A   Overcast
11:34 AM 33.8 °F 28.6 °F 23.0 °F 65% 30.11 in 10.0 mi ESE 5.8 mph - N/A   Scattered Clouds
11:55 AM 35.6 °F 29.9 °F 23.0 °F 60% 30.10 in 10.0 mi SE 6.9 mph - N/A   Clear
12:14 PM 35.6 °F 29.9 °F 24.8 °F 65% 30.08 in 10.0 mi ESE 6.9 mph - N/A   Clear
12:34 PM 35.6 °F 30.7 °F 24.8 °F 65% 30.06 in 10.0 mi SE 5.8 mph - N/A   Mostly Cloudy
12:54 PM 37.4 °F 33.8 °F 24.8 °F 60% 30.03 in 10.0 mi SE 4.6 mph - N/A   Mostly Cloudy
1:14 PM 37.4 °F 33.8 °F 26.6 °F 65% 30.03 in 10.0 mi East 4.6 mph - N/A   Scattered Clouds
1:34 PM 37.4 °F 32.8 °F 26.6 °F 65% 30.02 in 10.0 mi ESE 5.8 mph - N/A   Mostly Cloudy
1:54 PM 35.6 °F 32.8 °F 26.6 °F 70% 30.02 in 10.0 mi ESE 3.5 mph - N/A   Overcast
2:14 PM 37.4 °F 34.9 °F 26.6 °F 65% 30.01 in 10.0 mi ESE 3.5 mph - N/A   Overcast
2:34 PM 37.4 °F 33.8 °F 26.6 °F 65% 29.99 in 10.0 mi East 4.6 mph - N/A   Overcast
2:54 PM 37.4 °F 33.8 °F 26.6 °F 65% 29.97 in 10.0 mi East 4.6 mph - N/A   Overcast
3:14 PM 37.4 °F 32.1 °F 26.6 °F 65% 29.95 in 10.0 mi East 6.9 mph - N/A   Overcast
3:34 PM 37.4 °F 33.8 °F 28.4 °F 70% 29.94 in 10.0 mi East 4.6 mph - N/A   Overcast
3:54 PM 37.4 °F 32.8 °F 28.4 °F 70% 29.94 in 10.0 mi East 5.8 mph - N/A   Overcast
4:14 PM 37.4 °F 32.8 °F 28.4 °F 70% 29.94 in 10.0 mi East 5.8 mph - N/A   Overcast
4:34 PM 37.4 °F 33.8 °F 28.4 °F 70% 29.93 in 10.0 mi East 4.6 mph - N/A   Overcast
4:54 PM 37.4 °F 32.1 °F 28.4 °F 70% 29.92 in 10.0 mi East 6.9 mph - N/A   Overcast
5:14 PM 37.4 °F 31.4 °F 28.4 °F 70% 29.88 in 10.0 mi East 8.1 mph - N/A   Overcast
5:34 PM 39.2 °F 34.2 °F 28.4 °F 65% 29.87 in 10.0 mi East 6.9 mph - N/A   Overcast
5:54 PM 39.2 °F 34.2 °F 28.4 °F 65% 29.87 in 10.0 mi East 6.9 mph - N/A   Overcast
6:15 PM 41.0 °F 33.9 °F 26.6 °F 57% 29.86 in 10.0 mi ESE 12.7 mph 17.3 mph N/A   Overcast
6:34 PM 41.0 °F 33.9 °F 26.6 °F 57% 29.86 in 10.0 mi SE 12.7 mph 17.3 mph N/A   Overcast
6:54 PM 41.0 °F 34.7 °F 26.6 °F 57% 29.85 in 10.0 mi SE 10.4 mph 18.4 mph N/A   Overcast
7:14 PM 41.0 °F 34.3 °F 26.6 °F 57% 29.84 in 10.0 mi SE 11.5 mph 16.1 mph N/A   Overcast
7:34 PM 41.0 °F 34.3 °F 26.6 °F 57% 29.83 in 10.0 mi SE 11.5 mph 18.4 mph N/A   Overcast
7:54 PM 39.2 °F 32.0 °F 28.4 °F 65% 29.84 in 10.0 mi SE 11.5 mph 18.4 mph N/A   Overcast
8:14 PM 39.2 °F 32.0 °F 28.4 °F 65% 29.83 in 10.0 mi SE 11.5 mph - N/A   Drizzle
8:34 PM 39.2 °F 32.5 °F 30.2 °F 70% 29.81 in 10.0 mi SE 10.4 mph - N/A Rain Light Rain
8:54 PM 39.2 °F 32.5 °F 30.2 °F 70% 29.78 in 10.0 mi SE 10.4 mph - N/A   Drizzle
9:14 PM 39.2 °F 33.0 °F 32.0 °F 75% 29.76 in 10.0 mi ESE 9.2 mph - N/A   Light Drizzle
9:34 PM 41.0 °F 33.1 °F 30.2 °F 65% 29.75 in 10.0 mi SE 15.0 mph 19.6 mph N/A Rain Light Rain
9:54 PM 42.8 °F 35.1 °F 30.2 °F 61% 29.75 in 10.0 mi SE 16.1 mph 26.5 mph N/A   Light Drizzle
10:14 PM 42.8 °F 35.4 °F 30.2 °F 61% 29.74 in 10.0 mi SE 15.0 mph 24.2 mph N/A Rain Rain
10:34 PM 39.2 °F 30.2 °F 30.2 °F 70% 29.73 in 7.0 mi SE 17.3 mph 21.9 mph 0.01 in Rain Light Rain
10:54 PM 39.2 °F 30.8 °F 32.0 °F 75% 29.71 in 4.0 mi SE 15.0 mph - 0.03 in Rain Rain
11:14 PM 37.4 °F 29.3 °F 32.0 °F 81% 29.71 in 10.0 mi SSE 12.7 mph 18.4 mph N/A   Overcast
11:35 PM 37.4 °F 29.3 °F 32.0 °F 81% 29.70 in 10.0 mi SSE 12.7 mph - N/A Rain Light Rain
11:54 PM 37.4 °F 30.8 °F 33.8 °F 87% 29.70 in 10.0 mi South 9.2 mph - N/A   Overcast